Location: Potomac
(46.8816°N, 113.5795°W)
Time: 01:19:13
(UTC+00:00)

JY1SAT - Pass Details

Date: 07 July 2022
Orbit: 564 x 586 km, 97.6° (Epoch: 15 August)

Event Time Altitude Azimuth Distance (km) Brightness Sun altitude
Exits shadow 06:11:11 - 226° (SW) 2,066 ? -17.7°
Reaches altitude 10° 06:11:47 10° 232° (SW) 1,911 ? -17.8°
Maximum altitude 06:14:17 16° 270° (W) 1,585 ? -17.9°
Drops below altitude 10° 06:16:48 10° 307° (NW) 1,917 ? -18.1°
Sets 06:19:45 0° 330° (NNW) 2,821 ? -18.3°
